Change the Weather History Date:

Wednesday, March 6, 2013

  Actual Average Record
Temperature  
Mean Temperature 36 °F 45 °F  
Max Temperature 44 °F 56 °F 77 °F (1951)
Min Temperature 28 °F 35 °F -2 °F (1960)
Degree Days  
Heating Degree Days 29 20  
Month to date heating degree days 170 124  
Since 1 July heating degree days 3281 3420  
Cooling Degree Days 0 0  
Month to date cooling degree days 0 0  
Year to date cooling degree days 0 0  
Moisture  
Dew Point 24 °F    
Average Humidity 64    
Maximum Humidity 78    
Minimum Humidity 49    
Precipitation  
Precipitation T in 0.13 in 1.04 in (1967)
Month to date precipitation 0.26 0.70  
Year to date precipitation 12.01 8.29  
Snow  
Snow T in 0.00 in 8.00 in (1967)
Month to date snowfall 0.6 0.2  
Since 1 July snowfall 6.7 8.7  
Snow Depth 0.00 in    
Sea Level Pressure  
Sea Level Pressure 30.28 in    
Wind  
Wind Speed 11 mph (NNW)    
Max Wind Speed 23 mph    
Max Gust Speed 33 mph    
Visibility 10 miles    
Events      
T = Trace of Precipitation, MM = Missing Value Source: NWS Daily Summary

Daily Weather History Graph

Daily Weather History Graph

Search for Another Location

Airport or City:

Trip Planner

Search our weather history database for the weather conditions in past years. The results will help you decide how hot, cold, wet, or windy it might be!

Date:

Astronomy

Mar. 06, 2013 Rise Set
Actual Time 6:18 AM CST 5:54 PM CST
Civil Twilight 5:52 AM CST 6:20 PM CST
Nautical Twilight 5:22 AM CST 6:50 PM CST
Astronomical Twilight 4:52 AM CST 7:20 PM CST
Moon 2:21 AM CST (3/6) 12:41 PM CST (3/6)
Length of Visible Light 12h 27m
Length of Day
11h 35m
Waning Crescent, 29% of the Moon is Illuminated
Mar 6
Waning Crescent
Mar 11
New
Mar 19
First Quarter
Mar 27
Full
Apr 2
Last Quarter

Hourly Weather History & Observations

Time (CST) Temp. Windchill Dew Point Humidity Pressure Visibility Wind Dir Wind Speed Gust Speed Precip Events Conditions
12:53 AM 34.0 °F 23.0 °F 24.1 °F 67% 30.10 in 10.0 mi WNW 18.4 mph 26.5 mph N/A   Overcast
1:53 AM 33.1 °F 23.9 °F 24.1 °F 70% 30.11 in 9.0 mi WNW 12.7 mph 24.2 mph 0.00 in   Overcast
2:53 AM 34.0 °F 23.0 °F 23.0 °F 64% 30.12 in 10.0 mi NW 18.4 mph 26.5 mph N/A   Overcast
3:53 AM 33.1 °F 23.0 °F 23.0 °F 66% 30.14 in 10.0 mi NW 15.0 mph 24.2 mph 0.00 in   Overcast
4:53 AM 33.1 °F 23.4 °F 21.9 °F 64% 30.17 in 10.0 mi NW 13.8 mph 26.5 mph N/A   Overcast
5:53 AM 33.1 °F 21.5 °F 21.9 °F 64% 30.21 in 10.0 mi NW 19.6 mph 26.5 mph N/A   Overcast
6:53 AM 33.1 °F 23.4 °F 21.9 °F 64% 30.24 in 10.0 mi NW 13.8 mph 27.6 mph N/A   Overcast
7:53 AM 33.1 °F 23.4 °F 21.9 °F 64% 30.27 in 10.0 mi NW 13.8 mph 25.3 mph N/A   Overcast
8:53 AM 35.1 °F 25.2 °F 23.0 °F 61% 30.29 in 10.0 mi NNW 16.1 mph 25.3 mph N/A   Overcast
9:17 AM 35.6 °F 25.5 °F 24.8 °F 65% 30.29 in 10.0 mi NNW 17.3 mph 24.2 mph N/A   Overcast
9:53 AM 36.0 °F 26.3 °F 24.1 °F 62% 30.31 in 10.0 mi NNW 16.1 mph 25.3 mph N/A   Overcast
10:18 AM 37.4 °F 27.8 °F 24.8 °F 60% 30.31 in 10.0 mi NNW 17.3 mph 25.3 mph N/A   Overcast
10:45 AM 35.6 °F 27.1 °F 24.8 °F 65% 30.32 in 10.0 mi NNW 12.7 mph 20.7 mph N/A   Overcast
10:53 AM 37.0 °F 27.4 °F 25.0 °F 62% 30.33 in 10.0 mi NNW 17.3 mph 23.0 mph N/A   Overcast
11:27 AM 37.4 °F 28.5 °F 24.8 °F 60% 30.33 in 10.0 mi NW 15.0 mph 24.2 mph N/A   Overcast
11:53 AM 37.0 °F 28.9 °F 24.1 °F 59% 30.33 in 10.0 mi NW 12.7 mph - N/A   Overcast
12:53 PM 37.9 °F 30.0 °F 25.0 °F 60% 30.32 in 10.0 mi NNW 12.7 mph - N/A   Overcast
1:53 PM 41.0 °F 35.8 °F 25.0 °F 53% 30.31 in 10.0 mi WNW 8.1 mph 17.3 mph N/A   Mostly Cloudy
2:53 PM 44.1 °F 37.7 °F 26.1 °F 49% 30.30 in 10.0 mi NNW 12.7 mph - N/A   Partly Cloudy
3:53 PM 42.8 °F 39.3 °F 24.8 °F 49% 30.30 in 10.0 mi NW 5.8 mph - N/A   Mostly Cloudy
4:53 PM 41.0 °F 35.2 °F 25.0 °F 53% 30.31 in 10.0 mi NNW 9.2 mph - N/A   Overcast
5:53 PM 39.0 °F 33.4 °F 25.0 °F 57% 30.32 in 10.0 mi NW 8.1 mph - N/A   Overcast
6:53 PM 37.0 °F 29.8 °F 25.0 °F 62% 30.33 in 10.0 mi North 10.4 mph - N/A   Mostly Cloudy
7:53 PM 37.0 °F 31.6 °F 25.0 °F 62% 30.34 in 10.0 mi NNW 6.9 mph - N/A   Overcast
8:53 PM 34.0 °F 29.8 °F 24.1 °F 67% 30.33 in 10.0 mi NNE 4.6 mph - N/A   Clear
9:53 PM 33.1 °F 30.0 °F 25.0 °F 72% 30.33 in 10.0 mi ENE 3.5 mph - N/A   Clear
10:53 PM 30.9 °F - 24.1 °F 76% 30.33 in 10.0 mi Calm Calm - N/A   Clear
11:53 PM 28.0 °F - 24.1 °F 85% 30.33 in 10.0 mi Calm Calm - N/A   Clear